Weather History for Waterloo, IA

Change the Weather History Date:

Monday, April 22, 2013

  Actual Average Record
Temperature  
Mean Temperature 51 °F 52 °F  
Max Temperature 63 °F 64 °F 100 °F (1980)
Min Temperature 38 °F 40 °F 20 °F (1986)
Degree Days  
Heating Degree Days 14 14  
Month to date heating degree days 516 396  
Since 1 July heating degree days 6909 6721  
Cooling Degree Days 0 0  
Month to date cooling degree days 0 0  
Year to date cooling degree days 0 0  
Growing Degree Days 2 (Base 50)    
Moisture  
Dew Point 44 °F    
Average Humidity 74    
Maximum Humidity 100    
Minimum Humidity 48    
Precipitation  
Precipitation 0.36 in 0.13 in 2.11 in (1968)
Month to date precipitation 6.05 2.57  
Year to date precipitation 11.70 6.45  
Snow  
Snow 0.00 in 0.00 in 1.30 in (1984)
Month to date snowfall 0.1 1.6  
Since 1 July snowfall 48.4 35.1  
Snow Depth 0.00 in    
Sea Level Pressure  
Sea Level Pressure 30.06 in    
Wind  
Wind Speed 11 mph (South)    
Max Wind Speed 29 mph    
Max Gust Speed 36 mph    
Visibility 10 miles    
Events Rain    
T = Trace of Precipitation, MM = Missing Value Source: NWS Daily Summary

Daily Weather History Graph

Daily Weather History Graph

Search for Another Location

Airport:

Trip Planner

Search our weather history database for the weather conditions in past years. The results will help you decide how hot, cold, wet, or windy it might be!

Date:

Astronomy

Apr. 22, 2013 Rise Set
Actual Time 6:17 AM CDT 7:59 PM CDT
Civil Twilight 5:47 AM CDT 8:29 PM CDT
Nautical Twilight 5:10 AM CDT 9:06 PM CDT
Astronomical Twilight 4:31 AM CDT 9:45 PM CDT
Moon 4:45 PM CDT (4/22) 4:16 AM CDT (4/22)
Length of Visible Light 14h 42m
Length of Day
13h 42m
Waxing Gibbous, 88% of the Moon is Illuminated
Apr 22
Waxing Gibbous
Apr 25
Full
May 2
Last Quarter
May 9
New
May 17
First Quarter

Hourly Weather History & Observations

Time (CDT) Temp. Windchill Dew Point Humidity Pressure Visibility Wind Dir Wind Speed Gust Speed Precip Events Conditions
12:54 AM 48.9 °F - 46.0 °F 90% 30.20 in 5.0 mi SW 4.6 mph - 0.07 in Rain Light Rain
1:54 AM 48.9 °F - 46.0 °F 90% 30.17 in 9.0 mi South 13.8 mph - 0.08 in Rain Light Rain
2:54 AM 48.9 °F - 45.0 °F 86% 30.16 in 10.0 mi South 12.7 mph - 0.08 in Rain Light Rain
3:54 AM 48.0 °F - 45.0 °F 89% 30.14 in 10.0 mi South 4.6 mph - 0.01 in Rain Light Rain
4:54 AM 46.9 °F - 45.0 °F 93% 30.14 in 9.0 mi SSE 5.8 mph - 0.04 in Rain Light Rain
5:54 AM 48.0 °F - 44.1 °F 86% 30.12 in 10.0 mi SSE 10.4 mph - 0.02 in   Overcast
6:54 AM 48.0 °F - 44.1 °F 86% 30.13 in 10.0 mi SE 6.9 mph - N/A   Overcast
7:54 AM 48.0 °F - 43.0 °F 83% 30.13 in 10.0 mi SSE 9.2 mph - N/A   Overcast
8:54 AM 50.0 °F - 43.0 °F 77% 30.12 in 10.0 mi SSE 9.2 mph - N/A   Overcast
9:54 AM 50.0 °F - 43.0 °F 77% 30.12 in 10.0 mi SSE 8.1 mph - N/A   Overcast
10:54 AM 52.0 °F - 44.1 °F 74% 30.12 in 10.0 mi SSE 8.1 mph - N/A   Overcast
11:54 AM 54.0 °F - 45.0 °F 72% 30.11 in 10.0 mi South 6.9 mph - 0.00 in   Overcast
12:54 PM 55.0 °F - 45.0 °F 69% 30.09 in 10.0 mi SSE 6.9 mph - N/A   Overcast
1:54 PM 57.0 °F - 44.1 °F 62% 30.04 in 10.0 mi SSE 11.5 mph - 0.00 in   Overcast
2:54 PM 60.1 °F - 44.1 °F 55% 30.01 in 10.0 mi SSE 12.7 mph - N/A   Overcast
3:54 PM 63.0 °F - 44.1 °F 50% 29.99 in 10.0 mi South 13.8 mph - N/A   Mostly Cloudy
4:54 PM 62.1 °F - 43.0 °F 50% 29.96 in 10.0 mi SSE 16.1 mph 21.9 mph N/A   Overcast
5:54 PM 62.1 °F - 43.0 °F 50% 29.93 in 10.0 mi SE 10.4 mph - N/A   Clear
6:54 PM 62.1 °F - 42.1 °F 48% 29.92 in 10.0 mi South 16.1 mph - N/A   Overcast
7:54 PM 57.9 °F - 45.0 °F 62% 29.96 in 10.0 mi SSW 20.7 mph 29.9 mph 0.00 in Rain Light Rain
8:54 PM 52.0 °F - 50.0 °F 93% 29.99 in 9.0 mi SSW 10.4 mph - 0.11 in Rain Light Rain
9:54 PM 52.0 °F - 48.0 °F 86% 30.01 in 10.0 mi SW 13.8 mph - 0.01 in Rain Light Rain
10:40 PM 50.0 °F - 48.2 °F 94% 30.00 in 9.0 mi WNW 13.8 mph - 0.02 in Rain Light Rain
10:44 PM 48.2 °F - 46.4 °F 93% 30.00 in 9.0 mi WNW 11.5 mph - 0.02 in Rain Light Rain
10:54 PM 45.0 °F 38.5 °F 44.1 °F 97% 30.02 in 8.0 mi WNW 13.8 mph - 0.02 in Rain Light Rain
11:05 PM 42.8 °F 37.5 °F 41.0 °F 93% 30.00 in 10.0 mi WNW 9.2 mph - 0.00 in Rain Light Rain
11:16 PM 42.8 °F 38.0 °F 41.0 °F 93% 30.00 in 10.0 mi WNW 8.1 mph - 0.00 in Rain Light Rain
11:44 PM 42.8 °F 37.0 °F 41.0 °F 93% 30.00 in 10.0 mi WNW 10.4 mph - 0.00 in Rain Light Rain
11:54 PM 41.0 °F 34.3 °F 39.9 °F 96% 30.01 in 10.0 mi WNW 11.5 mph - 0.00 in Rain Light Rain